KC3ECO Weather Reports


Display with metric or nautical units.
time (UTC)temp
F
wind
direction
speed
MPH
gust
MPH
rain 1hr
in
rain 24hr
in
rain mn
in
humidity
%
barometer
mb
20260510085016 49 89 1.0 4.0 0.00 0.00 0.00 98 1011.5
20260510084016 49 294 1.0 3.0 0.00 0.00 0.00 98 1011.6
20260510083016 50 338 1.0 3.0 0.00 0.00 0.00 98 1011.7
20260510082016 50 232 1.0 3.0 0.00 0.00 0.00 98 1011.7
20260510081016 49 302 1.0 3.0 0.00 0.00 0.00 98 1011.7
20260510080016 48 66 1.0 2.0 0.00 0.00 0.00 98 1011.1
20260510075016 48 67 1.0 3.0 0.00 0.00 0.00 98 1011.0
20260510074016 48 55 1.0 3.0 0.00 0.00 0.00 98 1010.8
20260510073017 48 61 1.0 2.0 0.00 0.00 0.00 98 1010.8
20260510072037 48 84 1.0 2.0 0.00 0.00 0.00 98 1010.7
20260510071017 48 100 1.0 4.0 0.00 0.00 0.00 98 1010.7
20260510070017 48 115 3.0 7.0 0.00 0.00 0.00 98 1010.6
20260510065018 48 8 3.0 5.0 0.00 0.00 0.00 98 1010.4
20260510064037 48 83 2.0 6.0 0.00 0.00 0.00 98 1010.2
20260510063018 48 123 1.0 5.0 0.00 0.00 0.00 98 1010.1
20260510062018 49 74 1.0 2.0 0.00 0.00 0.00 98 1010.3
20260510061038 48 109 2.0 6.0 0.00 0.00 0.00 98 1010.5
20260510060018 49 78 1.0 3.0 0.00 0.00 0.00 98 1010.5
20260510055018 49 43 1.0 3.0 0.00 0.00 0.00 98 1010.5
20260510054018 49 62 0.0 2.0 0.00 0.00 0.00 98 1010.5
20260510053018 49 52 1.0 3.0 0.00 0.00 0.00 97 1010.5
20260510052018 50 29 1.0 3.0 0.00 0.00 0.00 97 1010.7
20260510051019 50 56 1.0 3.0 0.00 0.00 0.00 97 1010.8
20260510050016 50 68 0.0 2.0 0.00 0.00 0.00 97 1010.8
20260510045019 50 20 1.0 2.0 0.00 0.00 0.00 97 1010.8
20260510044015 50 9 0.0 2.0 0.00 0.00 0.00 97 1010.8
20260510043016 51 55 0.0 1.0 0.00 0.00 0.00 97 1010.8
20260510042016 51 95 1.0 2.0 0.00 0.00 0.00 97 1010.8
20260510041016 51 20 1.0 2.0 0.00 0.00 0.00 97 1010.9
20260510040016 51 43 0.0 2.0 0.00 0.00 0.00 97 1011.0
20260510035016 51 59 1.0 2.0 0.00 0.00 0.00 97 1011.0
20260510034018 52 58 1.0 2.0 0.00 0.00 0.00 97 1010.9
20260510033017 52 68 0.0 2.0 0.00 0.00 0.00 96 1010.9
20260510032017 52 72 1.0 1.0 0.00 0.00 0.00 96 1010.9
20260510031017 52 77 1.0 2.0 0.00 0.00 0.00 96 1010.8
20260510030016 52 86 0.0 2.0 0.00 0.00 0.00 96 1010.8
20260510025057 52 93 0.0 1.0 0.00 0.00 0.00 96 1010.7
20260510024037 52 87 0.0 2.0 0.00 0.00 0.00 96 1010.6
20260510023017 52 66 0.0 1.0 0.00 0.00 0.00 95 1010.6
20260510022018 53 45 0.0 1.0 0.00 0.00 0.00 95 1010.6
20260510021018 53 65 0.0 1.0 0.00 0.00 0.00 95 1010.7
20260510020018 53 90 0.0 2.0 0.00 0.00 0.00 95 1010.6
20260510015018 53 63 0.0 2.0 0.00 0.00 0.00 94 1010.4
20260510014017 53 54 0.0 1.0 0.00 0.00 0.00 94 1010.4
20260510013018 54 42 0.0 1.0 0.00 0.00 0.00 93 1010.3
20260510012018 54 57 1.0 2.0 0.00 0.00 0.00 93 1010.2
20260510011018 54 45 0.0 1.0 0.00 0.00 0.00 92 1010.0
20260510010018 55 53 0.0 2.0 0.00 0.00 0.00 91 1009.9
20260510005015 55 335 0.0 2.0 0.00 0.00 0.00 90 1009.7
20260510004017 56 54 0.0 2.0 0.00 0.00 0.00 89 1009.7
20260510003016 56 74 0.0 2.0 0.00 0.00 0.00 88 1009.7
20260510002036 57 35 0.0 2.0 0.00 0.00 0.00 86 1009.7
20260510001016 58 43 0.0 1.0 0.00 0.00 0.00 85 1009.7
20260510000016 59 38 0.0 2.0 0.00 0.00 0.00 83 1009.6
20260509235016 60 15 0.0 1.0 0.00 0.00 0.00 81 1009.6
20260509234017 61 19 0.0 2.0 0.00 0.00 0.00 80 1009.5
20260509233017 62 317 0.0 2.0 0.00 0.00 0.00 78 1009.5
20260509232017 63 12 1.0 3.0 0.00 0.00 0.00 75 1009.5
20260509231017 65 341 0.0 2.0 0.00 0.00 0.00 72 1009.6
20260509230038 65 153 1.0 3.0 0.00 0.00 0.00 72 1009.6
20260509225018 65 297 1.0 3.0 0.00 0.00 0.00 70 1009.7
20260509224017 65 321 1.0 2.0 0.00 0.00 0.00 70 1009.6
20260509223017 65 146 2.0 5.0 0.00 0.00 0.00 70 1009.6
20260509222018 64 3 1.0 3.0 0.00 0.00 0.00 71 1009.9
20260509221038 63 140 2.0 5.0 0.00 0.00 0.00 71 1010.0
20260509220019 63 133 2.0 6.0 0.00 0.00 0.00 72 1010.0
20260509215038 63 148 2.0 7.0 0.00 0.00 0.00 72 1010.0
20260509214018 63 138 1.0 5.0 0.00 0.00 0.00 73 1009.9
20260509213018 63 139 1.0 4.0 0.00 0.00 0.00 71 1009.8
20260509212015 64 149 2.0 7.0 0.00 0.00 0.00 70 1009.9
20260509211036 64 121 2.0 9.0 0.00 0.00 0.00 69 1009.9
20260509210016 64 150 3.0 6.0 0.00 0.00 0.00 70 1009.8
20260509205016 63 153 1.0 4.0 0.00 0.00 0.00 70 1009.8
20260509204035 63 250 0.0 2.0 0.00 0.00 0.00 71 1009.6
20260509203016 64 143 1.0 5.0 0.00 0.00 0.00 69 1009.7
20260509202116 64 163 1.0 4.0 0.00 0.00 0.00 70 1009.8
20260509201016 64 82 2.0 4.0 0.00 0.00 0.00 69 1010.0
20260509200017 65 141 3.0 6.0 0.00 0.00 0.00 68 1010.1
20260509195017 65 124 3.0 6.0 0.00 0.00 0.00 66 1010.2
20260509194016 65 113 2.0 6.0 0.00 0.00 0.00 67 1010.3
20260509193037 65 213 1.0 3.0 0.00 0.00 0.00 68 1010.3
20260509192017 65 113 2.0 6.0 0.00 0.00 0.00 67 1010.4
20260509191017 64 138 3.0 9.0 0.00 0.00 0.00 68 1010.8
20260509190038 63 157 3.0 7.0 0.00 0.00 0.00 70 1010.9
20260509185017 63 132 3.0 7.0 0.00 0.00 0.00 70 1010.9
20260509184017 63 204 2.0 6.0 0.00 0.00 0.00 72 1011.2
20260509183018 63 359 1.0 3.0 0.00 0.00 0.00 70 1011.3
20260509182037 63 121 1.0 3.0 0.00 0.00 0.00 70 1011.4
20260509181058 63 44 0.0 1.0 0.00 0.00 0.00 74 1011.2
20260509180018 63 331 0.0 1.0 0.00 0.00 0.00 68 1011.2
20260509175019 63 30 0.0 1.0 0.00 0.00 0.00 71 1011.3
20260509174017 63 29 0.0 1.0 0.00 0.00 0.00 70 1011.4
20260509173019 64 8 0.0 1.0 0.00 0.00 0.00 65 1011.5
20260509172102 63 303 1.0 2.0 0.00 0.00 0.00 65 1011.5
20260509171016 64 289 2.0 2.0 0.00 0.00 0.00 64 1011.6
20260509170038 63 333 1.0 2.0 0.00 0.00 0.00 65 1011.6
20260509165016 63 293 1.0 2.0 0.00 0.00 0.00 66 1011.6
20260509164016 63 272 1.0 3.0 0.00 0.00 0.00 66 1011.7
20260509163016 63 295 2.0 4.0 0.00 0.00 0.00 67 1011.6
20260509162016 64 307 1.0 3.0 0.00 0.00 0.00 65 1011.5
20260509161016 64 261 1.0 4.0 0.00 0.00 0.00 64 1011.4
20260509160018 65 273 2.0 6.0 0.00 0.00 0.00 64 1011.6
20260509155016 64 72 2.0 5.0 0.00 0.00 0.00 62 1011.7
20260509154017 64 293 2.0 5.0 0.00 0.00 0.00 64 1012.0
20260509153017 63 297 1.0 3.0 0.00 0.00 0.00 64 1012.2
20260509152018 62 301 1.0 3.0 0.00 0.00 0.00 66 1012.3
20260509151017 62 294 2.0 4.0 0.00 0.00 0.00 67 1012.4
20260509150018 62 277 2.0 4.0 0.00 0.00 0.00 66 1012.4
20260509145018 62 277 2.0 5.0 0.00 0.00 0.00 66 1012.5
20260509144018 62 292 2.0 4.0 0.00 0.00 0.00 66 1012.5
20260509143018 62 277 3.0 8.0 0.00 0.00 0.00 66 1012.6
20260509142018 62 288 2.0 5.0 0.00 0.00 0.00 68 1012.6
20260509141018 61 288 1.0 3.0 0.00 0.00 0.00 68 1012.4
20260509140019 61 277 2.0 4.0 0.00 0.00 0.00 70 1012.2
20260509135019 61 261 2.0 4.0 0.00 0.00 0.00 70 1012.1
20260509134039 61 284 2.0 4.0 0.00 0.00 0.00 74 1012.2
20260509133039 61 287 3.0 6.0 0.00 0.00 0.00 74 1012.3
20260509132056 60 296 2.0 4.0 0.00 0.00 0.00 76 1012.3
20260509131016 60 293 2.0 3.0 0.00 0.00 0.00 78 1012.3
20260509130031 60 276 2.0 5.0 0.00 0.00 0.00 79 1012.3
20260509125036 60 288 2.0 6.0 0.00 0.00 0.00 79 1012.2
20260509124036 59 275 2.0 4.0 0.00 0.00 0.00 79 1012.2
20260509123036 59 260 2.0 6.0 0.00 0.00 0.00 79 1012.1
20260509122036 59 273 3.0 5.0 0.00 0.00 0.00 80 1012.1
20260509121017 59 276 3.0 7.0 0.00 0.00 0.00 80 1012.2
20260509120016 59 266 3.0 5.0 0.00 0.00 0.00 80 1012.1
20260509115022 59 272 3.0 5.0 0.00 0.00 0.00 79 1012.2
20260509114016 58 284 3.0 7.0 0.00 0.00 0.00 79 1012.1
20260509113017 58 262 1.0 2.0 0.00 0.00 0.00 79 1011.9
20260509112037 58 276 2.0 3.0 0.00 0.00 0.00 79 1011.8
20260509111017 57 289 1.0 3.0 0.00 0.00 0.00 78 1011.8
20260509110017 57 300 1.0 2.0 0.00 0.00 0.00 77 1011.6
20260509105017 56 248 1.0 4.0 0.00 0.00 0.00 77 1011.6
20260509104017 56 326 1.0 2.0 0.00 0.00 0.00 77 1011.6
20260509103018 56 329 1.0 2.0 0.00 0.00 0.00 76 1011.5
20260509102016 56 338 1.0 2.0 0.00 0.00 0.00 75 1011.4
20260509101016 55 339 1.0 2.0 0.00 0.00 0.00 74 1011.3
20260509100016 56 348 1.0 3.0 0.00 0.00 0.00 73 1011.2
20260509095016 56 360 1.0 2.0 0.00 0.00 0.00 72 1011.2
20260509094017 56 331 1.0 2.0 0.00 0.00 0.00 72 1011.1
20260509093016 56 321 1.0 2.0 0.00 0.00 0.00 71 1011.3
20260509092017 56 347 1.0 3.0 0.00 0.00 0.00 71 1011.2
20260509091017 57 333 1.0 3.0 0.00 0.00 0.00 71 1011.3
20260509090017 57 296 1.0 3.0 0.00 0.00 0.00 70 1011.5